Decatur, AL

9:45 AM CDT on April 28, 2017 (GMT -0500)
Pryor Regional

Weather History for KDCU - January, 2014

Change the Weather History Date:

Wednesday, January 22, 2014

  Actual Average Record
Temperature  
Mean Temperature 24 °F -  
Max Temperature 35 °F 48 °F 71 °F (1974)
Min Temperature 14 °F 30 °F -10 °F (1985)
Degree Days  
Heating Degree Days 40    
Moisture  
Dew Point 9 °F    
Average Humidity 58    
Maximum Humidity 81    
Minimum Humidity 30    
Precipitation  
Precipitation 0.00 in - - ()
Sea Level Pressure  
Sea Level Pressure 30.20 in    
Wind  
Wind Speed 6 mph (NNW)    
Max Wind Speed 9 mph    
Max Gust Speed 16 mph    
Visibility 10 miles    
Events      
Averages and records for this station are not official NWS values.
T = Trace of Precipitation, MM = Missing Value Source: NWS Daily Summary

Daily Weather History Graph

Daily Weather History Graph

Search for Another Location

Airport or City:

Trip Planner

Search our weather history database for the weather conditions in past years. The results will help you decide how hot, cold, wet, or windy it might be!

Date:

Astronomy

Jan. 22, 2014 Rise Set
Actual Time 6:52 AM CST 5:07 PM CST
Civil Twilight 6:24 AM CST 5:34 PM CST
Nautical Twilight 5:54 AM CST 6:04 PM CST
Astronomical Twilight 5:24 AM CST 6:34 PM CST
Moon 11:21 PM CST (1/22) 10:09 AM CST (1/22)
Length of Visible Light 11h 09m
Length of Day
10h 15m
Waning Gibbous, 65% of the Moon is Illuminated
Jan 22
Waning Gibbous
Jan 23
Last Quarter
Jan 30
New
Feb 6
First Quarter
Feb 14
Full

Hourly Weather History & Observations

Time (CST) Temp. Windchill Dew Point Humidity Pressure Visibility Wind Dir Wind Speed Gust Speed Precip Events Conditions
12:53 AM 16.0 °F 4.4 °F 8.1 °F 71% 30.21 in 10.0 mi North 9.2 mph - N/A   Clear
1:53 AM 17.1 °F 5.8 °F 8.1 °F 68% 30.21 in 10.0 mi North 9.2 mph - N/A   Clear
2:53 AM 17.1 °F 5.8 °F 8.1 °F 68% 30.21 in 10.0 mi North 9.2 mph - N/A   Mostly Cloudy
3:53 AM 16.0 °F 4.4 °F 8.1 °F 71% 30.23 in 10.0 mi North 9.2 mph - N/A   Overcast
4:53 AM 16.0 °F 5.3 °F 8.1 °F 71% 30.24 in 10.0 mi North 8.1 mph - N/A   Overcast
5:53 AM 16.0 °F 8.8 °F 8.1 °F 71% 30.23 in 10.0 mi NNE 4.6 mph - N/A   Mostly Cloudy
6:53 AM 14.0 °F - 7.0 °F 74% 30.23 in 10.0 mi Calm Calm - N/A   Clear
7:53 AM 17.1 °F - 8.1 °F 68% 30.24 in 10.0 mi Calm Calm - N/A   Clear
8:53 AM 18.0 °F 12.7 °F 6.1 °F 60% 30.26 in 10.0 mi SE 3.5 mph - N/A   Clear
9:53 AM 21.0 °F 16.2 °F 6.1 °F 53% 30.24 in 10.0 mi East 3.5 mph - N/A   Clear
10:53 AM 25.0 °F 20.7 °F 6.1 °F 45% 30.23 in 10.0 mi NE 3.5 mph - N/A   Clear
11:53 AM 27.0 °F 20.5 °F 7.0 °F 43% 30.20 in 10.0 mi SW 5.8 mph - N/A   Clear
12:53 PM 30.9 °F 26.2 °F 7.0 °F 37% 30.14 in 10.0 mi West 4.6 mph - N/A   Clear
1:53 PM 32.0 °F 25.6 °F 6.1 °F 34% 30.13 in 10.0 mi WNW 6.9 mph - N/A   Clear
2:53 PM 34.0 °F 28.0 °F 5.0 °F 30% 30.12 in 10.0 mi West 6.9 mph 16.1 mph N/A   Clear
3:53 PM 35.1 °F 29.3 °F 6.1 °F 30% 30.12 in 10.0 mi West 6.9 mph - N/A   Clear
4:53 PM 32.0 °F 26.4 °F 8.1 °F 37% 30.14 in 10.0 mi NNW 5.8 mph - N/A   Clear
5:53 PM 26.1 °F - 10.0 °F 51% 30.17 in 10.0 mi Calm Calm - N/A   Clear
6:53 PM 23.0 °F - 12.0 °F 63% 30.19 in 10.0 mi Calm Calm - N/A   Partly Cloudy
7:53 PM 21.0 °F 14.6 °F 14.0 °F 74% 30.20 in 10.0 mi NW 4.6 mph - N/A   Clear
8:53 PM 24.1 °F - 10.9 °F 57% 30.22 in 10.0 mi Calm Calm - N/A   Clear
9:53 PM 21.0 °F - 10.9 °F 65% 30.23 in 10.0 mi Calm Calm - N/A   Clear
10:53 PM 19.9 °F - 15.1 °F 81% 30.23 in 10.0 mi Calm Calm - N/A   Clear
11:53 PM 19.9 °F - 10.0 °F 65% 30.24 in 10.0 mi Calm Calm - N/A   Clear